{"data":{"norad_id":63267,"epoch":"2026-05-25T00:49:48.940608Z","epoch_age_seconds":62122,"freshness":"FRESH","line1":"1 63267U 25053C   26145.03459422  .00178133  00000+0  13586-2 0  9993","line2":"2 63267  43.0049  12.3058 0002866 260.0336 100.0209 15.70901179 69677","mean_motion":15.70901179,"eccentricity":0.0002866,"inclination_deg":43.0049,"raan_deg":12.3058,"arg_perigee_deg":260.0336,"mean_anomaly_deg":100.0209,"bstar":0.0013586,"rev_number":6967,"period_min":91.667128349644,"perigee_km":354.39011077644,"apogee_km":358.25030164704,"semimajor_km":6734.4572062117,"source":"CELESTRAK","updated_at":"2026-05-25T13:38:19.924125Z"}}